Overview Statistics Trail Chart Weather Telemetry Raw packets
 

This is the latest recevied weather packets stored in our database for station/object N8BAP. If no packets are shown the sender has not sent any weather packets the latest 10 day(s).

<< 25 26 27 28 29 30 31 >>
Time Temp. Humidity Pressure Rain* Wind** Luminosity Snow
1788448561 31.67° C 64% 1022.8 hPa 0 mm - 624 W/m² -
1788448257 31.67° C 67% 1023 hPa 0 mm - 554 W/m² -
1788447956 31.67° C 64% 1023.2 hPa 0 mm - 461 W/m² -
1788447652 31.67° C 65% 1023 hPa 0 mm - 477 W/m² -
1788447351 31.11° C 67% 1023 hPa 0 mm - 545 W/m² -
1788447047 31.11° C 64% 1023.1 hPa 0 mm - 563 W/m² -
1788446745 31.11° C 65% 1023.1 hPa 0 mm - 536 W/m² -
1788446442 30.56° C 68% 1023 hPa 0 mm - 529 W/m² -
1788446138 30.56° C 66% 1023.1 hPa 0 mm - 514 W/m² -
1788445833 30.56° C 68% 1023 hPa 0 mm - 486 W/m² -
1788445528 30.56° C 69% 1023.1 hPa 0 mm - 474 W/m² -
1788445226 30.56° C 67% 1023 hPa 0 mm - 446 W/m² -
1788444921 30° C 69% 1022.9 hPa 0 mm - 448 W/m² -
1788444616 30° C 72% 1023 hPa 0 mm - 435 W/m² -
1788444311 30° C 69% 1023.1 hPa 0 mm - 400 W/m² -
1788444006 29.44° C 70% 1023.1 hPa 0 mm - 359 W/m² -
1788443702 29.44° C 71% 1023 hPa 0 mm - 356 W/m² -
1788443396 28.89° C 71% 1023 hPa 0 mm - 317 W/m² -
1788443095 28.89° C 73% 1023.2 hPa 0 mm - 304 W/m² -
1788442792 28.89° C 74% 1023.1 hPa 0 mm - 293 W/m² -
1788442490 28.33° C 73% 1023.2 hPa 0 mm - 285 W/m² -
1788442184 28.33° C 74% 1023 hPa 0 mm - 269 W/m² -
1788441880 28.33° C 74% 1023.5 hPa 0 mm - 260 W/m² -
1788441580 28.33° C 74% 1023.2 hPa 0 mm - 252 W/m² -
1788441275 27.78° C 74% 1023.4 hPa 0 mm - 242 W/m² -

* Rain latest hour (hover to see other rain measurements)
** Current wind speed in m/s (hover to see current wind gust speed)